Regional Weather Roundup
Issued by NWS

Home | Current Version | Previous Version | Graphics & Text | Print | Product List | Glossary On
Versions: 1 2 3 4 5 6 7 8 9 10 11 12 13 14 15 16 17 18 19 20 21 22 23 24 25 26 27 28 29 30 31 32 33 34 35 36 37 38 39 40 41 42 43 44 45 46 47 48 49 50
000
ASUS43 KOAX 231410
RWRNE

WEATHER ROUNDUP FOR NEBRASKA
NATIONAL WEATHER SERVICE OMAHA NE
900 AM CDT SUN APR 23 2017

NOTES: SATELLITE DATA IS BEING USED TO AUGMENT CLOUD COVER ABOVE
       12000 FEET.
       "FAIR" INDICATES FEW OR NO CLOUDS BELOW 12,000 FEET WITH NO
       SIGNIFICANT WEATHER AND/OR OBSTRUCTIONS TO VISIBILITY.

  * THESE STATIONS DO NOT REPORT WEATHER SUCH AS RAIN...SNOW OR FOG.

NEZ001>004-019>022-054>056-231500-
NEBRASKA PANHANDLE

CITY           SKY/WX    TMP DP  RH WIND       PRES   REMARKS
SCOTTSBLUFF    CLOUDY    47  34  60 SE14      29.94F
ALLIANCE       CLOUDY    47  34  60 S16G24    29.95F
CHADRON        MOSUNNY   51  35  54 SW10      29.88F
KIMBALL        SUNNY     43  38  84 S10       29.99S
SIDNEY         CLOUDY    46  36  68 S20G26    30.01F
$$

NEZ057>060-069>072-079>082-231500-
SOUTHWEST NEBRASKA

CITY           SKY/WX    TMP DP  RH WIND       PRES   REMARKS
NORTH PLATTE   SUNNY     49  34  56 S13       30.11F
IMPERIAL       CLOUDY    45  34  65 S14       30.09F
LEXINGTON      SUNNY     51  32  47 SW9       30.13F
MCCOOK         SUNNY     47  36  65 SW6       30.14R
OGALLALA       CLOUDY    48  35  60 S17G23    30.06F
$$

NEZ005>010-023>029-035>040-094-231500-
NORTH CENTRAL NEBRASKA

CITY           SKY/WX    TMP DP  RH WIND       PRES   REMARKS
VALENTINE      SUNNY     54  30  40 S23G33    29.98F
AINSWORTH      SUNNY     51  34  52 SW22      30.02F
BROKEN BOW     SUNNY     51  31  46 SW15G24   30.11S
O`NEILL        SUNNY     54  34  47 S12       30.07F
ORD            SUNNY     50  33  52 S10       30.10F
THEDFORD       SUNNY     52  32  46 S17G24    30.07F
$$

NEZ041-046>049-061>064-073>077-083>087-231500-
SOUTH CENTRAL NEBRASKA

CITY           SKY/WX    TMP DP  RH WIND       PRES   REMARKS
GRAND ISLAND   SUNNY     54  32  43 SW12      30.15F
AURORA         SUNNY     56  32  40 S9        30.15F
HASTINGS       SUNNY     52  32  46 S6        30.16F
HEBRON         SUNNY     48  39  70 CALM      30.18S
HOLDREGE       SUNNY     50  32  49 SW8       30.14F
KEARNEY *      SUNNY     48  30  49 SW9       30.15S
YORK           SUNNY     54  32  43 SW10      30.16F
$$

NEZ011>018-030>034-042>045-231500-
NORTHEAST NEBRASKA

CITY           SKY/WX    TMP DP  RH WIND       PRES   REMARKS
NORFOLK        SUNNY     55  34  45 S13       30.11F
ALBION         SUNNY     52  34  50 SW10      30.12F
BLAIR          SUNNY     52  39  61 SW3       30.15S
FREMONT        SUNNY     54  41  60 S3        30.16S
TEKAMAH        SUNNY     50  41  71 S6        30.15S
WAYNE          SUNNY     54  38  55 SW15      30.11F
$$

NEZ050>053-065>068-078-088>093-231500-
SOUTHEAST NEBRASKA

CITY           SKY/WX    TMP DP  RH WIND       PRES   REMARKS
LINCOLN        SUNNY     49  38  65 S3        30.19S
OMAHA EPPLEY   MOSUNNY   51  40  65 S6        30.16F
BEATRICE       SUNNY     49  38  65 CALM      30.18S
FALLS CITY     SUNNY     51  41  68 W3        30.19R
NEBRASKA CITY  SUNNY     55  30  38 W9        30.17F
PLATTSMOUTH    SUNNY     54  34  47 S3        30.16F
$$

NEZ044-045-051>053-067-231500-
OMAHA AREA

CITY           SKY/WX    TMP DP  RH WIND       PRES   REMARKS
OMAHA EPPLEY   MOSUNNY   51  40  65 S6        30.16F
BLAIR          SUNNY     52  39  61 SW3       30.15S
FREMONT        SUNNY     54  41  60 S3        30.16S
MILLARD        SUNNY     52  43  71 CALM      30.16F
OFFUTT AFB     SUNNY     49  40  72 S5        30.16F
PLATTSMOUTH    SUNNY     54  34  47 S3        30.16F
WAHOO          FAIR      50  38  63 CALM      30.16S
$$




USA.gov is the U.S. government's official web portal to all federal, state and local government web resources and services.